Regional Weather Roundup
Issued by NWS

Home | Current Version | Previous Version | Graphics & Text | Print | Product List | Glossary On
Versions: 1 2 3 4 5 6 7 8 9 10 11 12 13 14 15 16 17 18 19 20 21 22 23 24 25 26 27 28 29 30 31 32 33 34 35 36 37 38 39 40 41 42 43 44 45 46 47 48 49 50
697
ASUS45 KABQ 270910
RWRNM
NEW MEXICO REGIONAL WEATHER ROUNDUP
NATIONAL WEATHER SERVICE ALBUQUERQUE NM
200 AM MST MON FEB 27 2017

NOTE: "FAIR" MEANS FEW OR NO CLOUDS BELOW 12,000 FEET AGL WITH NO
       SIGNIFICANT WEATHER OR OBSTRUCTIONS TO VISION.

      THIS PRODUCT IS RELEASED AS TWO VERSIONS.  ONE VERSION NEAR
      THE TOP OF THE HOUR CONTAINING PRELIMINARY DATA FROM ALBUQUERQUE
      AND OTHER STATIONS.  A FINAL VERSION WITH ADDITIONAL DATA IS
      ISSUED ABOUT 10 MINUTES AFTER THE HOUR.

NMZ501-503-504-510>518-271000-
NORTHWEST PLATEAU/NORTHCENTRAL MOUNTAINS

CITY           SKY/WX    TMP DP  RH WIND       PRES   REMARKS
FARMINGTON     CLOUDY    33  16  49 E9        29.86S WCI  25
LOS ALAMOS     FAIR      31  19  62 S6        29.91F WCI  25
SANTA FE       FAIR      26  17  68 NE6       29.91S WCI  19
TAOS           CLOUDY    28  10  47 CALM      29.90F
ANGEL FIRE     FAIR      26  16  65 SW23G32   29.84F WCI  11

$$
NMZ402-403-502-505>509-271000-
WESTCENTRAL MOUNTAINS/SOUTHWEST MOUNTAINS

CITY           SKY/WX    TMP DP  RH WIND       PRES   REMARKS
GALLUP         MOCLDY    34  23  64 SW10      29.90S WCI  26
GRANTS         CLOUDY    28  22  76 E7        29.93S WCI  21
SILVER CITY    FAIR      31  23  73 N5        29.98S WCI  26

$$
NMZ407-409-411-412-271000-
SOUTHERN DESERTS

CITY           SKY/WX    TMP DP  RH WIND       PRES   REMARKS
DEMING         FAIR      37  26  64 W8        29.97S WCI  31
LAS CRUCES     FAIR      37  18  45 W7        29.97F WCI  32
HOLLOMAN AFB   MOCLDY    47  19  32 VRB6      29.98R
ALAMOGORDO     FAIR      45  19  36 SE9       29.96R
T OR C         FAIR      39  25  57 W5        29.93F

$$
NMZ519>523-271000-
CENTRAL VALLEYS/CENTRAL HIGHLANDS

CITY           SKY/WX    TMP DP  RH WIND       PRES   REMARKS
ALBUQUERQUE    FAIR      32  22  66 SE8       29.93F WCI  25
DOUBLE EAGLE   FAIR      26  18  72 CALM      29.93F
MORIARTY ARPT  FAIR      28  20  71 W3        29.92F
CLINES CORNERS FAIR      28  18  66 W22       29.89F WCI  14
BELEN          FAIR      28  22  77 CALM      29.93F
SOCORRO        FAIR      34  24  67 CALM      29.92F

$$
NMZ524>526-539-540-271000-
SOUTHCENTRAL MOUNTAINS

CITY           SKY/WX    TMP DP  RH WIND       PRES   REMARKS
RUIDOSO        FAIR      39  16  38 W17G30    29.92F WCI  30

$$
NMZ527>531-271000-
NORTHEAST HIGHLANDS/NORTHEAST PLAINS

CITY           SKY/WX    TMP DP  RH WIND       PRES   REMARKS
LAS VEGAS      FAIR      34  16  47 SW23G29   29.81F WCI  22
RATON          FAIR      23   3  42 CALM      29.78F
CLAYTON        FAIR      32  14  47 W13       29.80F WCI  22

$$
NMZ532>537-271000-
EASTCENTRAL PLAINS

CITY           SKY/WX    TMP DP  RH WIND       PRES   REMARKS
TUCUMCARI      FAIR      35  22  58 SW8       29.84F WCI  29
CANNON AFB     CLEAR     29  21  71 W5        29.89F WCI  24
CLOVIS AIRPORT FAIR      28  19  69 SW9       29.90R WCI  20

$$
NMZ028-029-538-271000-
SOUTHEAST PLAINS

CITY           SKY/WX    TMP DP  RH WIND       PRES   REMARKS
ROSWELL        FAIR      36  24  62 W6          N/A  WCI  31
ARTESIA        FAIR      36  23  60 W8        29.91F WCI  29
CARLSBAD       FAIR      39  24  55 SW7       29.90S WCI  34
HOBBS          FAIR      39  19  45 CALM      29.93F


$$




USA.gov is the U.S. government's official web portal to all federal, state and local government web resources and services.